This demonstration page uses our WeatherBlox Daily Observations layout. Learn more.

Left ArrowRight Arrow

39.95238, -75.16362

Hourly Observations for January 14, 2022

Temp ( °F °C ) Dew Point ( °F °C ) Humidity (%) Winds ( mph kmh ) Pressure ( in mb ) Visibility ( mi km ) Precip ( " mm )
12:54 am 00:54 Mostly Cloudy 40 4.4 29 -1.7 65 65 N 6 9 29.81 1009 10 16 0.00 0.00
1:54 am 01:54 Mostly Cloudy 38 3.3 28 -2.2 68 68 N 8 13 29.80 1009 10 16 0.00 0.00
2:54 am 02:54 Cloudy 38 3.3 27 -2.8 65 65 N 8 13 29.80 1009 10 16 0.00 0.00
3:54 am 03:54 Cloudy 40 4.4 27 -2.8 60 60 N 9 15 29.79 1009 10 16 0.00 0.00
4:54 am 04:54 Cloudy 40 4.4 27 -2.8 60 60 N 12 19 29.77 1008 10 16 0.00 0.00
5:54 am 05:54 Cloudy 40 4.4 26 -3.3 58 58 N 12 19 29.77 1008 10 16 0.00 0.00
6:54 am 06:54 Cloudy 39 3.9 25 -3.9 57 57 N 10 17 29.78 1008 10 16 0.00 0.00
7:54 am 07:54 Mostly Cloudy 40 4.4 25 -3.9 55 55 N 13 20 29.78 1008 10 16 0.00 0.00
8:54 am 08:54 Mostly Cloudy 41 5 26 -3.3 55 55 N 13 20 29.80 1009 10 16 0.00 0.00
9:54 am 09:54 Partly Cloudy 45 7.2 29 -1.7 54 54 N 21 33 29.80 1009 10 16 0.00 0.00
10:54 am 10:54 Partly Cloudy 47 8.3 31 -0.6 54 54 N 20 31 29.79 1009 10 16 0.00 0.00
11:54 am 11:54 Partly Cloudy 48 8.9 31 -0.6 52 52 N 22 35 29.78 1009 10 16 0.00 0.00
12:54 pm 12:54 Partly Cloudy 49 9.4 31 -0.6 50 50 NNW 25 41 29.78 1008 10 16 0.00 0.00
1:21 pm 13:21 Mostly Sunny 48 8.9 27 -2.8 44 44 NNW 20 31 29.79 1009 10 16 0.00 0.00
1:54 pm 13:54 Partly Cloudy 48 8.9 24 -4.4 39 39 N 20 31 29.78 1009 10 16 0.00 0.00
2:54 pm 14:54 Partly Cloudy 48 8.9 24 -4.4 39 39 NNW 24 39 29.79 1009 10 16 0.00 0.00
3:54 pm 15:54 Mostly Sunny 45 7.2 24 -4.4 44 44 NNW 22 35 29.82 1010 10 16 0.00 0.00
4:54 pm 16:54 Mostly Sunny 42 5.6 23 -5 47 47 NNW 21 33 29.84 1011 10 16 0.00 0.00
5:54 pm 17:54 Mostly Clear 39 3.9 20 -6.7 46 46 NNW 23 37 29.88 1012 10 16 0.00 0.00
6:54 pm 18:54 Mostly Clear 35 1.7 18 -7.8 50 50 NNW 25 41 29.93 1013 10 16 0.00 0.00
7:54 pm 19:54 Clear 33 0.6 13 -10.6 43 43 NNW 23 37 29.95 1014 10 16 0.00 0.00
8:54 pm 20:54 Clear 31 -0.6 11 -11.7 43 43 NNW 18 30 29.96 1015 10 16 0.00 0.00
9:54 pm 21:54 Clear 29 -1.7 7 -13.9 39 39 NNW 23 37 29.99 1016 10 16 0.00 0.00
10:54 pm 22:54 Clear 27 -2.8 4 -15.6 37 37 NNW 20 31 30.01 1016 10 16 0.00 0.00
11:54 pm 23:54 Clear 26 -3.3 2 -16.7 35 35 NNW 13 20 30.02 1017 10 16 0.00 0.00

Powered by AerisWeather